Location: Harbor View
(36.2448°N, 86.5797°W)
Time: 08:41:26
(UTC+00:00)

Cosmos 2369 - Pass Details

Date: 29 October 2020
Orbit: 841 x 854 km, 71.0° (Epoch: 05 December)

Event Time Altitude Azimuth Distance (km) Brightness Sun altitude
Rises 23:28:57 0° 182° (S) 3,405 7.0 -7.9°
Reaches altitude 10° 23:31:30 10° 176° (S) 2,473 6.2 -8.4°
Maximum altitude 23:36:51 44° 106° (ESE) 1,159 4.1 -9.5°
Drops below altitude 10° 23:42:13 10° 35° (NE) 2,481 5.7 -10.6°
Sets 23:44:46 0° 29° (NNE) 3,418 6.5 -11.1°
